Flag for Spain

Past Weather in Huesca, Huesca, Spain — Yesterday and Last 2 Weeks

Currently: 39 °F. Fog. (Weather station: Zaragoza / Aeropuerto, Spain). See more current weather

Past Weather in Huesca — Graph

°F

Huesca Temperature Yesterday

Maximum temperature yesterday: 46 °F (at 3:30 pm)
Minimum temperature yesterday: 37 °F (at 1:00 am)
Average temperature yesterday: 42 °F

High & Low Weather Summary for the Past Weeks

 TemperatureHumidityPressure
High59 °F (Jan 17, 2:30 pm)100% (Jan 8, 11:30 pm)30.39 "Hg (Jan 8, 11:30 pm)
Low25 °F (Jan 7, 5:30 am)31% (Jan 16, 3:30 pm)29.74 "Hg (Jan 9, 1:30 pm)
Average40 °F77%30.13 "Hg
* Reported Jan 6 5:00 am — Jan 21 5:09 am, Huesca. Weather by CustomWeather, © 2021

Note: Actual official high and low records may vary slightly from our data, if they occured in-between our weather recording intervals... More about our weather records

Huesca Weather History for the Previous 24 Hours

Scroll right to see more
 ConditionsComfort  
Time TempWeatherWind HumidityBarometerVisibility
5:09 am
Thu, Jan 21
39 °FDense fog.8 mph100%29.83 "Hg1 mi
4:30 am41 °FFog.6 mph100%29.83 "Hg2 mi
4:00 am41 °FPassing clouds.5 mph100%29.83 "Hg4 mi
3:30 am41 °FPassing clouds.6 mph100%29.83 "Hg4 mi
3:00 am41 °FPassing clouds.8 mph100%29.83 "Hg4 mi
2:30 am43 °FPartly cloudy.6 mph93%29.80 "Hg4 mi
2:00 am43 °FLight rain. Overcast.6 mph93%29.80 "Hg4 mi
1:30 am43 °FPassing clouds.3 mph93%29.80 "Hg5 mi
1:00 am43 °FPassing clouds.6 mph93%29.80 "Hg4 mi
12:30 am43 °FPassing clouds.3 mph93%29.80 "Hg4 mi
12:00 am43 °FPassing clouds.5 mph93%29.80 "Hg4 mi
11:30 pm
Wed, Jan 20
43 °FPassing clouds.6 mph93%29.80 "Hg5 mi
11:00 pm43 °FPassing clouds.7 mph93%29.80 "HgN/A
10:30 pm43 °FPassing clouds.5 mph93%29.80 "HgN/A
10:00 pm43 °FPassing clouds.7 mph93%29.80 "HgN/A
9:30 pm43 °FPassing clouds.5 mph93%29.80 "HgN/A
9:00 pm43 °FPartly cloudy.3 mph93%29.80 "HgN/A
8:30 pm45 °FOvercast.6 mph87%29.80 "HgN/A
8:00 pm45 °FPassing clouds.10 mph87%29.77 "HgN/A
7:30 pm45 °FPassing clouds.9 mph87%29.77 "HgN/A
7:00 pm45 °FPassing clouds.8 mph87%29.77 "HgN/A
6:30 pm43 °FPassing clouds.7 mph93%29.77 "HgN/A
6:00 pm43 °FPartly sunny.9 mph93%29.77 "HgN/A
5:30 pm43 °FPartly sunny.13 mph87%29.77 "HgN/A
5:00 pm45 °FOvercast.9 mph81%29.77 "HgN/A
4:30 pm46 °FOvercast.13 mph71%29.80 "HgN/A
4:00 pm46 °FOvercast.12 mph76%29.80 "HgN/A
3:30 pm46 °FOvercast.15 mph76%29.80 "HgN/A
3:00 pm45 °FOvercast.15 mph81%29.80 "HgN/A
2:00 pm45 °FOvercast.15 mph81%29.83 "HgN/A
1:30 pm45 °FOvercast.14 mph81%29.83 "HgN/A
1:00 pm43 °FPartly sunny.17 mph93%29.83 "HgN/A
12:30 pm43 °FPartly sunny.15 mph93%29.86 "Hg5 mi
12:00 pm43 °FFog.10 mph93%29.89 "Hg3 mi
11:30 am41 °FFog.13 mph100%29.92 "Hg1 mi
11:00 am41 °FFog.10 mph100%29.92 "Hg1 mi
10:30 am41 °FFog.15 mph100%29.92 "Hg3 mi
10:00 am41 °FFog.12 mph100%29.92 "Hg2 mi
9:30 am41 °FFog.10 mph93%29.95 "Hg2 mi
9:00 am41 °FFog.14 mph93%29.95 "Hg1 mi
8:30 am41 °FFog.9 mph100%29.95 "Hg3 mi
8:00 am41 °FFog.9 mph93%29.95 "Hg1 mi
7:30 am41 °FFog.13 mph100%29.98 "Hg2 mi
7:00 am41 °FFog.12 mph100%29.95 "Hg1 mi
6:30 am41 °FFog.13 mph100%29.98 "Hg1 mi
6:00 am41 °FFog.12 mph100%29.98 "Hg1 mi
Weather by CustomWeather, © 2021

See weather overview